Simultaneous Nadir Overpasses (SNOs) Predictions

Prediction of SNOs between GOES-16 and AQUA Satellite Orbit:

Table of predicted SNOs for the next 14.0 days since TLE Epoch: 7/17/2021
Index Date Time (GOES-16) GOES-16 Lat,Lon AQUA Lat,Lon Distance(km) Time Diff (sec)
1 07/17/2021 06:44:19 -0.08, -75.19 0.26, -76.85 188.28 80
2 07/19/2021 06:29:28 -0.08, -75.21 -0.35, -73.89 149.52 80
3 07/19/2021 18:50:53 0.09, -75.22 -0.72, -79.09 440.40 80
4 07/21/2021 06:19:58 -0.09, -75.23 -1.02, -70.95 487.38 80
5 07/21/2021 18:38:42 0.09, -75.24 -0.11, -76.14 102.43 80
6 07/23/2021 18:29:12 0.10, -75.26 0.57, -73.19 236.08 80
7 07/24/2021 06:50:27 -0.11, -75.27 0.57, -78.34 349.68 80
8 07/26/2021 06:38:17 -0.11, -75.30 -0.11, -75.40 10.26 80
9 07/28/2021 06:26:06 -0.11, -75.35 -0.73, -72.44 330.74 80
10 07/28/2021 18:44:50 0.12, -75.36 -0.40, -77.63 258.78 80
11 07/30/2021 18:35:20 0.12, -75.41 0.29, -74.68 82.93 80
